{"data":{"norad_id":45701,"intl_designator":"2020-035AW","name":"STARLINK-1403","alt_names":[],"object_type":"PAYLOAD","status":"ACTIVE","operator":null,"country":"US","launch_date":"2020-06-04","launch_site_code":"AFETR","launch_vehicle":null,"mission":null,"orbit_class":"UNKNOWN","rcs_meters":null,"size_class":null,"mass_kg":null,"dimensions":null,"purposes":["comms"],"wikipedia_slug":null,"has_3d_model":false,"image_url":null,"decayed_at":null,"tle_current":{"epoch":"2026-09-18T07:04:09.361056Z","epoch_age_seconds":212556,"freshness":"STALE","line1":"1 45701U 20035AW  26261.29455279  .00049994  00000+0  11390-2 0  9997","line2":"2 45701  53.1507 215.5810 0002921  80.7857 279.3479 15.42466445348727","mean_motion":15.42466445,"eccentricity":0.0002921,"inclination_deg":53.1507,"raan_deg":215.581,"arg_perigee_deg":80.7857,"mean_anomaly_deg":279.3479,"bstar":0.001139,"rev_number":34872,"period_min":93.356974128536,"perigee_km":436.84137305976,"apogee_km":440.82384670586,"semimajor_km":6816.9696098828,"source":"CELESTRAK","updated_at":"2026-09-20T09:00:38.454309Z"}}}